This demonstration page uses our WeatherBlox Daily Observations layout. Learn more.

Left ArrowRight Arrow

38.83388, -104.82136

Hourly Observations for January 6, 2017

Temp ( °F °C ) Dew Point ( °F °C ) Humidity (%) Winds ( mph kmh ) Pressure ( in mb ) Visibility ( mi km ) Precip ( " mm )
12:58 am 00:58 Cloudy 2 -16.4 0 -17.8 89 89 Calm 29.85 1011 10 16 0.00 0.00
1:58 am 01:58 Cloudy 2 -16.4 0 -17.9 88 88 Calm 29.85 1011 10 16 0.00 0.00
2:58 am 02:58 Cloudy 4 -15.6 1 -17 89 89 Calm 29.87 1012 10 16 0.00 0.00
3:58 am 03:58 Mostly Cloudy 4 -15.3 2 -16.8 88 88 Calm 29.86 1011 10 16 0.00 0.00
4:56 am 04:56 Cloudy with Light Snow 9 -13 -2 -19 61 61 NW 7 11 30.21 1023 10 16 0.00 0.00
4:58 am 04:58 Cloudy with Light Snow 8 -13.4 -3 -19.5 60 60 NW 8 13 29.83 1010 10 16 0.00 0.00
5:37 am 05:37 Cloudy 7 -14 0 -18 72 72 Calm 30.24 1024 10 16 0.00 0.00
5:58 am 05:58 Cloudy 7 -14 -2 -19 66 66 Calm 29.87 1012 10 16 0.00 0.00
6:58 am 06:58 Clear 5 -14.8 -2 -19 71 71 Calm 29.91 1013 10 16 0.00 0.00
7:58 am 07:58 Sunny 7 -14.1 -3 -19.2 66 66 W 3 6 29.92 1013 10 16 0.00 0.00
8:58 am 08:58 Sunny 11 -11.5 2 -16.7 66 66 Calm 29.91 1013 10 16 0.00 0.00
9:58 am 09:58 Sunny 13 -10.5 6 -14.4 73 73 SE 6 9 29.93 1013 10 16 0.02 0.51
10:58 am 10:58 Sunny 13 -10.8 5 -15 72 72 SE 3 6 29.95 1014 10 16 0.06 1.52
11:58 am 11:58 Sunny 15 -9.7 7 -13.9 72 72 SE 7 11 29.94 1014 10 16 0.04 1.02
12:58 pm 12:58 Sunny 15 -9.7 8 -13.6 73 73 ESE 6 9 29.91 1013 10 16 0.02 0.51
1:58 pm 13:58 Mostly Sunny 16 -9.1 5 -14.9 63 63 ESE 5 7 29.93 1014 10 16 0.02 0.51
2:58 pm 14:58 Sunny 14 -10 4 -15.4 65 65 SSE 8 13 29.96 1015 10 16 0.01 0.25
3:58 pm 15:58 Sunny 14 -10.2 2 -16.6 60 60 S 9 15 29.99 1016 10 16 0.00 0.00
4:58 pm 16:58 Clear 13 -10.6 4 -15.8 66 66 S 6 9 29.99 1016 10 16 0.00 0.00
5:58 pm 17:58 Clear 12 -11.2 3 -15.9 69 69 Calm 30.02 1017 10 16 0.00 0.00
6:58 pm 18:58 Clear 13 -10.8 0 -17.9 56 56 Calm 30.05 1018 10 16 0.00 0.00
7:58 pm 19:58 Clear 11 -11.8 1 -17.2 65 65 Calm 30.07 1018 10 16 0.00 0.00
8:58 pm 20:58 Clear 11 -11.5 4 -15.8 71 71 Calm 30.06 1018 10 16 0.00 0.00
9:58 pm 21:58 Clear 12 -11.2 2 -16.4 66 66 WNW 3 6 30.07 1018 10 16 0.00 0.00
10:58 pm 22:58 Clear 15 -9.2 4 -15.4 61 61 WNW 6 9 30.06 1018 10 16 0.00 0.00
11:58 pm 23:58 Clear 16 -9.1 3 -16.1 57 57 NW 5 7 30.05 1018 10 16 0.00 0.00

Powered by AerisWeather